Battle Creek, Michigan, United States (49014)
Lat: 42.32N, Lon: 85.18W
Wx Zone: MIZ073
Local Info
Past Weather Observations for Today

NOTE: This archive is for the closest National Weather Service station to Battle Creek. Information may differ from the station used for current weather conditions.

Click here for Long-term Archive

Time Weather Temperature Dewpoint Humidity Pressure Winds Precip Visibility
22:53
Clear
66°F / 19°C 59°F / 15°C 78% 30.06 in
(1018 mb)
S 3.5 mph
(S 6 kph)
- 7SM
22:05
Clear
Hazy
66°F / 19°C 59°F / 15°C 78% 30.06 in
(1018 mb)
SSW 3.5 mph
(SSW 6 kph)
- 3SM
21:57
Clear
Hazy
68°F / 20°C 59°F / 15°C 73% 30.06 in
(1018 mb)
SSW 3.5 mph
(SSW 6 kph)
- 1 3/4SM
21:53
Clear
Hazy
70°F / 21°C 59°F / 15°C 69% 30.06 in
(1018 mb)
Calm - 3SM
20:53
Clear
70°F / 21°C 61°F / 16°C 73% 30.04 in
(1017 mb)
WNW 3.5 mph
(WNW 6 kph)
- 10SM
20:13
Partly Cloudy
Hazy
72°F / 22°C 61°F / 16°C 69% 30.01 in
(1016 mb)
WNW 5.8 mph
(WNW 9 kph)
- 3SM
19:53
Clear
73°F / 23°C 59°F / 15°C 61% 30.01 in
(1016 mb)
NW 5.8 mph
(NW 9 kph)
- 8SM
19:50
Clear
Hazy
73°F / 23°C 59°F / 15°C 61% 30.01 in
(1016 mb)
NW 6.9 mph
(NW 11 kph)
- 2 1/2SM
19:42
Partly Cloudy
Hazy
73°F / 23°C 59°F / 15°C 61% 30.01 in
(1016 mb)
NW 5.8 mph
(NW 9 kph)
- 1 3/4SM
18:53
Clear
77°F / 25°C 59°F / 15°C 54% 30.01 in
(1016 mb)
NNW 3.5 mph
(NNW 6 kph)
- 10SM
17:53
Clear
79°F / 26°C 57°F / 14°C 48% 30.01 in
(1016 mb)
W 4.6 mph
(W 7 kph)
- 10SM
16:53
Clear
79°F / 26°C 57°F / 14°C 48% 30.04 in
(1017 mb)
SSW 4.6 mph
(SSW 7 kph)
- 10SM
16:00
Partly Cloudy
Hazy
79°F / 26°C 57°F / 14°C 48% 30.04 in
(1017 mb)
SSW 6.9 mph
(SSW 11 kph)
- 5SM
15:53
Clear
79°F / 26°C 57°F / 14°C 48% 30.04 in
(1017 mb)
SSW 6.9 mph
(SSW 11 kph)
- 7SM
14:53
Clear
79°F / 26°C 55°F / 13°C 45% 30.04 in
(1017 mb)
SSW 6.9 mph
(SSW 11 kph)
- 10SM
14:13
Partly Cloudy
Hazy
79°F / 26°C 55°F / 13°C 45% 30.04 in
(1017 mb)
SSW 5.8 mph
(SSW 9 kph)
- 4SM
13:53
Clear
79°F / 26°C 55°F / 13°C 45% 30.04 in
(1017 mb)
NNW 5.8 mph
(NNW 9 kph)
- 10SM
12:53
Clear
77°F / 25°C 54°F / 12°C 44% 30.04 in
(1017 mb)
SSW 5.8 mph
(SSW 9 kph)
- 10SM
11:53
Clear
75°F / 24°C 57°F / 14°C 54% 30.04 in
(1017 mb)
S 4.6 mph
(S 7 kph)
- 10SM
10:53
Clear
73°F / 23°C 55°F / 13°C 53% 30.04 in
(1017 mb)
Calm - 10SM
09:53
Clear
72°F / 22°C 57°F / 14°C 61% 30.04 in
(1017 mb)
N 5.8 mph
(N 9 kph)
- 10SM
08:53
Clear
70°F / 21°C 57°F / 14°C 64% 30.01 in
(1016 mb)
NW 4.6 mph
(NW 7 kph)
- 10SM
07:53
Clear
64°F / 18°C 57°F / 14°C 78% 30.01 in
(1016 mb)
NNW 3.5 mph
(NNW 6 kph)
- 10SM
06:53
Clear
Fog And Mist
59°F / 15°C 55°F / 13°C 88% 30.01 in
(1016 mb)
Calm - 6SM
05:53
Clear
55°F / 13°C 54°F / 12°C 94% 29.98 in
(1015 mb)
Calm - 7SM
04:53
Clear
55°F / 13°C 52°F / 11°C 88% 29.98 in
(1015 mb)
Calm - 10SM
03:53
Clear
55°F / 13°C 52°F / 11°C 88% 29.98 in
(1015 mb)
Calm - 9SM
02:53
Clear
55°F / 13°C 52°F / 11°C 88% 29.95 in
(1014 mb)
Calm - 9SM
01:53
Clear
59°F / 15°C 54°F / 12°C 82% 29.95 in
(1014 mb)
Calm - 10SM
00:53
Clear
57°F / 14°C 54°F / 12°C 88% 29.98 in
(1015 mb)
Calm - 10SM
Time Weather Temperature Dewpoint Humidity Pressure Winds Precip Visibility


Weather for websites

WeatherForYou.com, LLC is not responsible for any damages or problems caused by this service. Current weather conditions are obtained from the closest station including government and personal stations which may have varying degrees of accuracy. Weather forecasts are derived from the NOAA NDFD. Like all things, this site belongs to Jesus Christ... He just trusts us to maintain it. If you have any questions or comments email webmaster@weatherforyou.com

Copyright © 2015, WeatherForYou.com LLC. All rights reserved.